Location: Grand Mazuras
(45.9128°N, 1.7636°E)
Time: 16:57:13
(UTC+00:00)

Cosmos 1766 Rocket - Pass Details

Date: 18 April 2021
Orbit: 604 x 633 km, 82.5° (Epoch: 11 May)

Event Time Altitude Azimuth Distance (km) Brightness Sun altitude
Rises 20:57:15 0° 357° (N) 2,871 7.7 -20.8°
Reaches altitude 10° 20:59:36 10° 6° (N) 1,963 6.6 -21.1°
Enters shadow 21:03:30 39° 69° (ENE) 917 4.2 -21.5°
